Wetbulb
44.92 42.61 40.94 44.11 44.32 44.20 41.57 40.17 39.39 42.32 44.72 42.30 41.67 42.19 44.02 46.21 46.37 46.21 46.90 48.06 48.90 49.55 50.99 51.30 51.12 51.15 51.11 51.60 50.95 50.66 50.71 50.73 52.84 53.31 53.53 54.57 54.07 53.92 54.38 54.89 53.70 52.91 51.45 49.21
41.39 39.83 44.86 43.80 42.53 41.03 40.96 39.01 39.23 42.71 43.83 39.93 41.56 40.95 43.77 45.32 45.77 47.07 47.25 47.69 48.43 48.77 48.70 49.32 49.13 49.52 48.91 49.07 49.89 49.52 49.06 49.22 50.62 52.33 53.13 53.45 52.85 52.94 53.10 53.00 52.03 51.85 50.40 48.65
41.41 43.86 43.95 41.13 41.56 39.31 40.20 38.51 39.77 39.57 41.54 42.25 39.92 40.98 41.98 45.84 45.25 46.66 46.42 47.40 47.29 46.73 46.58 46.86 46.88 46.25 46.05 45.43 45.73 46.40 47.65 47.90 48.55 50.45 51.34 51.05 48.78 49.81 49.75 49.85 49.55 48.99 49.48 48.04
40.90 42.13 40.30 39.47 39.43 41.26 37.34 42.77 40.28 38.45 37.13 36.38 39.84 34.25 42.31 44.69 44.42 44.65 46.15 46.92 46.86 46.73 46.42 44.62 43.82 43.33 43.24 42.96 44.28 44.86 45.42 46.12 46.31 48.26 48.18 47.82 46.48 45.58 46.67 47.29 47.56 47.56 47.69 47.22
40.65 38.69 37.68 37.71 40.18 40.89 39.98 39.79 38.00 37.03 36.89 35.37 38.20 34.32 41.66 41.27 41.43 43.55 45.59 45.14 45.42 44.43 43.28 42.25 42.22 42.54 42.78 42.35 42.21 43.01 43.85 43.69 44.64 45.65 46.44 45.95 45.91 47.32 47.63 46.31 46.55 46.25 45.70 45.69
41.44 40.54 40.61 41.70 40.24 40.16 39.38 38.91 37.51 36.87 36.79 32.13 38.53 36.11 38.69 40.72 41.07 42.88 42.94 42.10 41.34 41.46 41.91 41.73 42.49 42.71 41.96 42.46 42.01 41.58 41.80 41.47 42.69 43.60 44.34 44.29 44.51 45.05 44.52 43.84 44.10 44.66 44.10 43.57
40.71 38.61 40.25 40.19 38.70 38.67 38.42 37.05 33.84 32.66 32.38 31.36 36.69 33.66 38.67 43.34 42.67 40.32 40.32 39.38 39.57 40.28 40.29 40.08 39.81 40.35 40.83 40.61 40.79 40.56 40.63 39.64 40.55 40.95 41.85 42.49 42.95 43.58 43.20 43.54 43.35 43.35 42.45 41.54
36.97 35.59 38.83 40.26 41.18 41.92 37.85 38.27 33.78 26.51 28.56 32.23 31.88 31.97 38.71 43.08 40.43 39.73 39.40 38.95 38.86 38.66 39.37 39.25 39.49 39.61 39.71 39.53 39.76 40.21 39.73 39.20 39.83 39.87 39.67 40.47 40.66 41.39 42.21 42.63 42.98 42.93 42.57 42.45
37.60 37.09 38.71 37.56 39.26 41.10 37.01 34.22 39.47 33.05 34.02 29.88 34.79 38.97 43.37 43.11 37.63 38.17 37.21 36.89 35.49 36.04 37.04 37.70 38.83 39.29 38.56 38.79 38.60 39.00 38.35 38.32 39.05 39.59 39.84 39.42 39.78 39.58 40.01 40.69 40.90 41.61 41.92 41.56
39.06 33.84 40.68 40.56 38.24 39.21 37.90 40.35 32.65 32.35 24.66 23.91 30.74 33.63 35.62 36.85 35.90 35.42 34.22 33.53 34.24 34.68 35.21 35.97 37.26 38.08 38.00 38.32 38.51 38.04 38.72 37.13 37.31 38.35 38.98 39.22 39.08 38.53 38.85 39.42 38.44 38.64 39.75 39.81
39.66 37.24 37.05 38.02 37.08 36.39 36.21 32.89 33.67 33.54 31.73 26.39 25.09 30.92 39.43 37.80 34.33 32.99 32.04 32.06 32.23 33.21 33.79 35.12 36.25 37.91 37.49 36.96 37.33 36.99 36.66 36.29 35.62 36.23 37.19 37.72 38.11 38.17 37.86 37.36 38.26 38.07 38.21 38.04
41.66 36.54 32.00 34.87 40.88 39.12 37.61 36.31 36.21 29.73 28.05 31.01 29.70 30.22 36.07 33.26 32.39 30.86 29.44 30.04 31.65 32.47 33.37 35.02 35.48 35.58 36.43 35.03 35.36 35.51 35.47 35.17 34.94 34.86 35.26 35.16 35.69 35.87 36.06 37.02 37.03 37.31 36.73 37.45
40.22 34.60 29.44 31.23 35.64 36.70 35.53 37.22 37.12 35.42 32.83 30.30 27.60 29.30 35.45 32.41 30.56 31.79 29.90 30.15 30.35 30.58 30.94 33.03 35.03 33.63 33.53 33.42 33.62 33.84 34.18 33.66 33.88 33.83 34.06 33.64 33.47 33.20 32.82 33.33 35.54 36.17 35.61 35.10
39.89 34.72 32.04 26.85 31.32 34.53 32.95 34.28 33.45 32.56 28.03 28.66 29.84 32.13 35.78 36.79 32.62 30.81 29.98 30.97 31.16 29.87 30.16 31.22 33.08 33.24 33.33 33.30 32.70 32.08 32.51 32.96 32.32 31.78 32.64 32.48 32.51 32.09 31.85 31.73 32.63 33.94 34.52 34.41
37.34 31.01 32.32 32.71 33.99 33.71 32.44 31.30 31.71 29.56 30.20 25.10 28.55 28.54 32.41 34.92 32.09 28.10 28.64 29.43 29.73 28.51 29.18 29.95 30.54 32.77 32.16 32.02 31.95 32.23 32.13 32.16 31.73 30.15 31.01 31.40 32.11 31.74 31.03 30.64 31.21 31.65 31.91 32.54
35.50 27.83 29.99 26.38 31.06 31.10 28.11 30.27 29.98 29.30 29.27 28.58 28.51 28.12 34.75 28.16 28.22 27.47 27.48 28.24 28.67 28.20 28.94 29.74 30.36 31.16 31.72 31.22 30.53 30.64 30.69 30.59 31.01 28.63 28.79 30.10 30.62 29.41 28.51 28.75 29.43 30.00 30.14 30.72
29.99 28.19 25.70 21.41 27.78 26.81 21.56 25.57 27.17 28.40 30.67 29.80 24.61 27.52 25.72 24.26 26.13 27.47 27.57 27.97 28.75 28.18 28.85 29.43 30.04 30.54 31.54 31.59 30.11 29.75 29.78 29.79 29.29 27.55 27.77 28.30 28.21 27.07 26.28 26.51 28.56 28.41 27.91 29.22
26.47 26.27 26.05 20.61 22.61 12.70 25.78 31.45 29.56 27.18 27.50 25.28 23.41 23.25 25.68 25.98 27.84 29.35 29.89 28.69 29.24 28.91 29.30 30.10 30.68 31.01 31.69 31.98 30.21 29.79 29.23 28.06 27.96 27.15 26.45 27.28 26.51 24.93 24.53 24.40 26.44 28.04 27.31 27.31
29.42 25.68 21.24 17.18 16.90 21.60 24.51 27.28 26.39 24.07 24.53 26.36 24.07 24.21 25.48 26.90 27.92 27.63 30.70 30.96 30.62 30.46 30.65 30.92 31.35 30.76 30.55 29.42 28.90 27.58 26.68 26.73 26.51 25.90 25.53 25.95 25.44 22.88 22.11 20.63 22.95 25.04 25.20 26.34
25.39 26.91 20.65 17.22 12.18 9.40 21.91 24.21 27.30 25.72 17.21 25.21 23.72 23.78 24.20 24.96 19.31 24.65 30.24 30.47 30.52 31.21 31.31 30.22 29.98 29.55 28.55 28.74 28.10 25.25 24.37 24.09 23.77 24.59 24.52 24.83 24.09 21.37 19.74 20.84 20.82 22.73 23.74 24.13
16.13 17.29 16.13 17.31 15.08 18.86 24.21 24.12 26.76 14.00 17.56 25.79 25.05 25.24 25.03 22.82 25.95 28.84 30.26 30.23 30.90 30.47 29.72 29.37 28.64 27.18 26.97 27.18 25.55 23.12 22.89 21.80 23.30 23.52 23.18 22.35 21.89 20.27 19.70 19.33 19.91 19.72 19.44 20.48
17.16 15.04 12.75 10.53 10.27 8.98 24.86 22.92 18.50 24.61 27.57 27.19 26.61 26.85 25.87 27.17 27.94 28.30 29.28 29.46 29.90 28.23 27.29 27.18 25.41 25.02 25.27 24.40 22.51 20.49 19.63 21.65 21.35 20.44 19.18 18.48 18.07 18.16 17.95 16.04 16.25 16.28 16.45 16.66
14.45 19.80 17.29 15.94 17.82 25.25 26.44 26.30 28.97 29.08 27.20 27.81 27.40 28.36 27.80 26.69 26.88 28.08 27.81 27.31 25.96 25.12 24.37 23.72 21.50 20.00 20.55 20.05 19.20 16.70 17.56 17.65 16.16 14.40 12.82 13.09 13.89 13.94 13.95 13.16 12.99 13.63 14.40 14.77
22.01 25.21 19.00 19.43 23.26 24.87 26.83 28.86 29.51 29.78 28.80 29.46 28.99 28.09 27.48 25.48 26.10 24.87 23.96 22.84 21.74 20.94 19.41 18.97 16.63 14.66 13.75 15.18 14.59 13.36 12.96 12.30 9.51 7.85 8.07 9.10 8.77 9.41 10.11 11.24 11.60 11.05 11.78 12.80
22.84 22.26 19.74 19.96 23.50 25.26 26.74 28.20 29.04 29.39 29.79 28.62 26.49 24.93 23.50 21.92 21.60 20.39 19.06 17.63 17.13 16.12 15.32 14.26 11.89 10.38 9.83 10.78 9.49 8.97 8.32 6.87 4.86 4.46 4.82 5.20 5.85 5.67 6.19 7.46 8.08 9.02 11.02 12.44
24.84 21.73 18.92 17.69 25.33 24.66 25.47 28.87 29.91 27.48 27.09 23.47 20.90 19.61 18.74 17.15 16.33 15.91 14.36 14.47 12.95 11.55 10.70 8.81 7.80 7.00 6.20 5.60 4.78 4.88 4.81 3.93 2.37 2.33 3.02 3.71 3.79 3.95 4.44 4.39 4.75 10.12 12.31 14.50
MSLP
1016.62 1016.21 1015.17 1014.33 1014.26 1013.75 1013.92 1013.69 1013.16 1012.35 1012.25 1012.39 1011.22 1010.65 1010.08 1009.13 1008.28 1007.64 1006.98 1007.19 1006.95 1006.79 1006.85 1006.89 1006.89 1007.27 1007.37 1007.07 1007.19 1007.59 1007.91 1008.47 1008.70 1009.41 1009.82 1010.08 1010.28 1011.32 1011.60 1011.77 1012.23 1012.62 1013.28 1014.01
1016.86 1015.47 1014.41 1014.57 1014.75 1014.64 1014.28 1013.92 1013.01 1012.49 1012.24 1012.62 1011.05 1010.30 1009.23 1008.52 1007.48 1006.75 1007.02 1007.02 1007.11 1007.22 1007.58 1007.83 1008.11 1008.25 1008.39 1007.99 1007.73 1007.47 1007.62 1008.20 1008.92 1008.96 1009.25 1009.67 1010.02 1010.42 1011.20 1011.90 1012.38 1012.79 1013.24 1013.64
1015.44 1014.61 1014.88 1015.18 1015.09 1014.80 1014.36 1013.87 1012.92 1012.74 1012.59 1012.04 1011.25 1009.45 1008.88 1007.86 1007.46 1006.91 1007.22 1007.47 1007.73 1008.30 1008.59 1008.88 1009.09 1009.20 1009.26 1009.05 1008.95 1008.68 1008.32 1008.22 1008.63 1009.38 1009.89 1010.33 1010.68 1010.60 1010.66 1011.36 1012.45 1013.26 1013.49 1013.88
1015.86 1015.45 1015.24 1015.47 1015.11 1014.89 1014.38 1013.81 1013.73 1013.45 1013.14 1011.85 1011.96 1007.82 1008.12 1007.22 1006.81 1007.28 1007.58 1007.78 1008.78 1009.77 1010.30 1010.82 1011.37 1011.32 1011.24 1011.19 1010.72 1010.01 1009.17 1009.16 1009.24 1009.47 1010.01 1010.40 1010.70 1010.83 1010.92 1011.11 1011.34 1012.16 1013.23 1013.75
1014.97 1015.33 1015.52 1015.40 1014.89 1015.01 1014.29 1014.20 1014.28 1014.13 1013.38 1012.34 1011.32 1010.65 1007.46 1007.30 1006.83 1007.54 1008.39 1009.66 1010.95 1011.77 1012.47 1012.49 1012.61 1012.67 1012.74 1012.06 1011.10 1009.96 1010.42 1010.49 1010.50 1010.35 1010.21 1010.52 1010.33 1010.52 1010.65 1011.25 1011.28 1011.75 1012.30 1012.94
1015.09 1015.69 1015.35 1014.55 1014.79 1015.04 1014.93 1014.81 1014.52 1014.35 1013.77 1011.47 1010.45 1010.02 1007.55 1007.49 1007.55 1008.50 1010.26 1011.91 1012.75 1013.16 1013.57 1014.03 1014.00 1013.40 1011.92 1011.38 1012.06 1012.20 1011.43 1011.44 1011.71 1011.52 1011.15 1010.84 1010.95 1010.62 1010.62 1011.01 1011.23 1011.60 1011.97 1012.65
1014.64 1014.78 1014.86 1014.93 1014.96 1015.04 1014.98 1015.02 1013.99 1013.24 1012.84 1010.96 1010.50 1010.21 1007.95 1008.55 1009.36 1010.49 1011.64 1012.90 1013.54 1013.80 1013.67 1013.54 1013.31 1013.79 1014.40 1013.87 1013.37 1012.57 1012.79 1012.71 1012.27 1012.22 1011.89 1011.67 1011.33 1011.33 1011.14 1010.70 1010.75 1011.16 1011.43 1011.88
1014.27 1013.30 1014.39 1014.51 1014.16 1013.90 1014.34 1014.30 1013.84 1013.15 1012.01 1010.70 1011.13 1008.69 1007.43 1009.31 1010.78 1011.80 1012.76 1013.77 1014.42 1014.26 1014.59 1014.39 1014.52 1014.71 1014.67 1015.14 1015.04 1014.24 1013.32 1013.55 1013.51 1012.56 1012.24 1012.33 1011.87 1011.58 1011.10 1011.16 1011.02 1010.78 1010.80 1011.04
1014.71 1013.27 1014.13 1014.58 1014.38 1014.13 1014.58 1014.14 1013.70 1013.64 1013.14 1012.14 1009.94 1008.38 1007.85 1009.52 1011.84 1013.20 1014.16 1015.05 1015.66 1015.84 1015.90 1016.13 1016.11 1015.63 1015.80 1015.22 1015.14 1015.00 1014.76 1013.89 1013.66 1013.26 1013.39 1012.79 1012.56 1011.79 1011.51 1011.19 1011.66 1011.06 1011.01 1011.18
1015.57 1015.01 1014.60 1014.71 1015.09 1014.73 1014.64 1014.23 1014.29 1014.17 1013.15 1011.63 1009.98 1008.83 1008.24 1010.47 1012.42 1014.11 1014.93 1015.76 1016.40 1016.71 1016.41 1016.39 1016.64 1016.60 1016.84 1015.98 1015.89 1015.61 1015.36 1015.19 1014.43 1014.35 1014.09 1013.70 1013.10 1012.55 1011.94 1011.36 1011.45 1011.46 1011.02 1010.97
1016.66 1016.54 1014.53 1015.41 1014.56 1014.31 1014.83 1014.65 1014.34 1014.14 1013.46 1012.21 1010.97 1009.95 1010.54 1011.59 1014.01 1015.10 1016.04 1017.04 1017.20 1017.17 1017.14 1017.18 1016.91 1016.45 1016.68 1016.76 1016.58 1016.10 1015.79 1015.86 1015.19 1014.60 1014.82 1013.92 1013.26 1013.26 1012.33 1011.84 1011.21 1011.22 1011.18 1011.13
1016.84 1016.92 1016.33 1014.58 1014.35 1014.50 1014.61 1014.58 1014.15 1013.89 1013.45 1012.51 1011.93 1011.15 1012.80 1013.62 1015.18 1016.50 1017.09 1017.83 1017.88 1017.48 1017.56 1017.34 1017.38 1017.41 1016.86 1017.03 1016.88 1016.71 1016.43 1015.97 1015.77 1015.43 1014.99 1014.48 1014.01 1013.55 1013.07 1012.49 1011.70 1011.14 1010.80 1010.67
1017.31 1017.43 1017.00 1015.93 1015.15 1015.30 1015.17 1015.11 1014.85 1014.79 1014.48 1012.92 1012.79 1012.48 1014.16 1014.78 1016.56 1017.57 1017.97 1018.40 1018.30 1017.70 1018.20 1017.82 1017.48 1017.31 1017.34 1017.18 1017.01 1016.97 1016.77 1016.63 1016.18 1015.43 1015.26 1015.12 1014.38 1014.09 1013.30 1012.88 1012.89 1012.01 1010.92 1010.69
1018.62 1017.88 1017.32 1016.84 1015.73 1016.08 1015.81 1016.12 1016.33 1016.14 1015.04 1013.83 1013.36 1013.39 1014.52 1014.79 1016.00 1017.00 1017.48 1017.78 1018.11 1017.88 1017.72 1017.52 1017.44 1017.50 1017.36 1017.21 1017.08 1017.01 1016.84 1016.60 1016.30 1015.69 1015.35 1015.00 1014.68 1014.25 1014.01 1013.48 1012.87 1012.47 1011.80 1011.01
1019.02 1018.30 1017.69 1017.13 1016.71 1016.54 1016.12 1016.17 1015.74 1015.13 1015.07 1014.86 1013.81 1014.13 1013.88 1014.62 1015.76 1016.87 1017.22 1017.03 1017.44 1017.39 1017.26 1017.53 1017.70 1017.73 1017.61 1017.38 1017.33 1017.31 1017.21 1016.81 1016.37 1015.84 1015.36 1015.00 1014.97 1014.36 1014.08 1013.99 1013.45 1012.71 1012.04 1011.41
1019.30 1018.60 1018.42 1017.25 1017.05 1016.64 1016.29 1015.90 1015.38 1015.33 1015.23 1014.78 1014.64 1013.98 1014.26 1016.01 1016.48 1016.72 1016.86 1017.12 1016.98 1016.75 1016.92 1017.23 1017.40 1017.50 1017.60 1017.64 1017.69 1017.35 1016.69 1016.18 1015.94 1015.79 1015.62 1015.34 1014.95 1014.23 1013.66 1013.43 1012.92 1012.18 1011.78 1011.10
1020.13 1019.48 1018.99 1017.28 1017.51 1016.86 1015.94 1015.07 1015.33 1014.84 1014.49 1014.47 1014.64 1015.04 1016.09 1016.64 1016.83 1016.93 1017.04 1017.02 1016.75 1016.77 1016.90 1016.91 1016.97 1017.00 1016.97 1017.04 1017.08 1016.77 1016.63 1016.54 1016.40 1016.16 1015.61 1015.08 1014.60 1014.14 1013.74 1013.43 1012.74 1011.94 1011.76 1011.29
1020.00 1019.74 1019.56 1017.97 1018.20 1016.03 1014.33 1014.84 1015.14 1014.91 1015.04 1015.54 1016.15 1016.76 1017.13 1017.16 1017.04 1017.04 1016.91 1016.70 1016.52 1016.57 1016.66 1016.62 1016.61 1016.50 1016.43 1016.40 1016.42 1016.29 1016.23 1016.11 1015.86 1015.54 1015.28 1014.97 1014.60 1014.21 1013.82 1013.30 1012.55 1011.83 1011.50 1010.87
1019.84 1019.84 1019.16 1018.58 1017.49 1015.67 1015.53 1015.55 1015.58 1015.76 1015.48 1016.44 1016.82 1017.27 1017.37 1017.39 1017.26 1016.50 1016.53 1016.36 1016.17 1016.18 1016.33 1016.45 1016.45 1016.44 1016.28 1016.18 1016.13 1015.99 1015.81 1015.67 1015.36 1015.06 1014.78 1014.47 1014.23 1013.91 1013.58 1013.13 1012.52 1011.82 1011.08 1010.06
1019.66 1019.96 1020.10 1019.26 1018.20 1016.47 1015.82 1016.36 1016.56 1016.61 1016.50 1017.07 1017.44 1017.53 1017.49 1017.48 1016.79 1015.85 1015.90 1016.06 1016.02 1016.07 1016.26 1016.35 1016.36 1016.37 1016.27 1015.86 1015.86 1015.76 1015.47 1015.26 1014.80 1014.51 1014.16 1013.92 1013.77 1013.62 1013.28 1012.82 1012.17 1011.44 1010.87 1009.84
1020.13 1020.05 1019.86 1019.04 1018.27 1016.98 1016.62 1016.91 1017.06 1016.98 1017.15 1017.23 1017.55 1017.32 1017.19 1016.95 1016.39 1015.91 1015.88 1015.89 1015.99 1016.21 1016.44 1016.62 1016.64 1016.40 1016.27 1016.10 1016.12 1015.82 1015.48 1015.03 1014.68 1014.29 1013.82 1013.52 1013.33 1013.04 1012.70 1012.18 1011.51 1010.94 1010.18 1009.24
1019.78 1019.60 1019.72 1019.85 1019.02 1017.59 1017.08 1017.24 1017.05 1016.18 1016.14 1016.64 1016.71 1016.59 1016.51 1016.37 1016.14 1016.02 1015.78 1015.66 1015.94 1016.48 1016.71 1016.72 1016.75 1016.58 1016.44 1016.50 1016.51 1015.99 1015.35 1015.06 1014.60 1014.18 1013.69 1013.22 1012.83 1012.44 1011.94 1011.48 1010.75 1010.27 1009.59 1008.55
1019.48 1018.69 1018.84 1019.19 1017.74 1016.68 1016.96 1016.30 1015.84 1015.94 1015.87 1015.75 1015.93 1015.92 1016.11 1016.12 1015.99 1015.91 1016.05 1016.48 1016.83 1017.17 1017.34 1017.53 1017.66 1017.29 1016.75 1016.85 1016.90 1016.26 1015.38 1015.21 1014.64 1014.03 1013.34 1012.91 1012.42 1011.92 1011.44 1010.71 1009.83 1009.32 1008.62 1007.57
1017.94 1018.20 1018.03 1018.17 1016.30 1016.18 1015.82 1015.48 1015.16 1015.09 1015.14 1015.31 1015.73 1015.91 1016.20 1016.35 1016.54 1016.71 1017.05 1017.35 1017.60 1017.92 1018.01 1018.14 1018.12 1017.76 1017.06 1017.04 1016.99 1016.78 1016.00 1015.62 1015.02 1014.13 1013.32 1012.74 1012.10 1011.29 1010.78 1010.10 1009.34 1008.52 1007.52 1006.45
1016.81 1017.38 1016.91 1016.42 1015.58 1015.37 1014.80 1014.75 1014.63 1014.68 1015.01 1015.32 1015.98 1016.48 1016.92 1017.31 1017.41 1017.80 1018.07 1018.39 1018.61 1018.84 1019.02 1019.15 1019.03 1018.45 1017.73 1017.42 1017.08 1016.90 1016.44 1016.04 1015.08 1014.21 1013.32 1012.51 1011.80 1010.88 1009.84 1009.12 1008.40 1007.50 1006.52 1005.89
1015.54 1015.24 1015.61 1014.63 1014.34 1014.40 1013.64 1014.06 1014.41 1014.79 1015.18 1016.02 1016.73 1017.30 1017.86 1018.33 1018.56 1018.84 1019.07 1019.32 1019.55 1019.58 1019.69 1019.55 1019.25 1018.79 1018.14 1017.61 1017.00 1016.61 1016.35 1015.82 1014.91 1013.75 1012.85 1011.94 1011.06 1010.13 1009.14 1008.02 1006.75 1006.42 1005.26 1004.21
Wind_Speed
4 7 12 17 18 19 11 15 19 23 22 17 21 20 20 22 23 25 24 18 14 14 12 11 10 12 11 9 8 10 11 12 11 12 12 12 13 12 12 12 17 19 16 19
5 12 19 4 6 11 14 15 21 18 17 5 16 20 25 19 18 19 16 14 12 12 12 16 18 16 17 17 14 8 8 10 11 10 10 11 11 11 11 10 13 15 17 18
17 10 4 8 12 14 13 15 17 17 14 14 13 14 6 10 8 8 6 8 4 10 16 18 20 21 21 20 18 15 10 7 9 11 7 7 4 5 9 10 10 12 16 16
8 3 6 5 12 12 14 10 16 12 7 11 9 15 9 9 13 4 8 9 12 16 17 18 19 20 20 19 16 15 14 7 5 8 7 11 9 9 7 9 10 11 16 16
3 5 5 7 9 8 6 2 2 2 7 10 3 9 3 4 5 3 2 11 16 17 17 19 19 18 18 18 17 21 17 13 7 4 7 7 10 8 5 6 9 13 12 16
12 2 4 4 2 4 2 2 1 1 3 11 7 7 6 1 1 2 15 14 14 15 15 17 18 17 22 22 21 19 19 16 12 8 6 7 10 9 6 6 6 7 9 10
3 5 2 3 6 3 4 4 8 9 7 15 4 7 11 11 6 7 11 12 13 14 15 17 22 22 22 23 20 17 21 20 16 11 8 8 9 11 10 10 7 8 8 9
10 17 8 8 9 10 9 7 6 10 16 19 6 13 11 5 12 12 14 14 12 16 16 17 18 17 17 18 20 20 19 18 18 17 15 10 8 7 7 9 8 7 8 9
13 19 2 3 0 3 5 8 4 12 16 12 17 25 18 9 10 10 11 11 14 14 14 15 16 16 16 16 18 18 19 18 18 19 16 14 11 9 9 10 10 7 8 7
4 14 2 1 1 6 9 7 9 6 9 22 16 22 15 9 8 7 9 10 10 10 12 12 12 13 13 14 14 16 16 18 17 15 14 13 15 12 10 8 9 10 9 8
6 7 20 2 9 17 9 8 8 7 8 11 14 14 11 5 7 7 8 9 10 11 11 11 12 11 11 12 14 14 14 15 16 16 16 15 15 15 12 9 9 9 9 9
12 6 10 26 18 4 6 16 18 13 11 11 15 17 6 11 7 4 5 3 5 8 11 9 9 11 11 12 12 13 13 14 14 13 14 14 15 15 15 15 13 11 11 10
1 4 7 10 8 3 6 6 15 8 3 12 11 3 6 10 7 4 4 1 2 5 7 8 9 11 11 11 11 12 12 13 13 13 12 12 11 14 15 15 15 14 10 9
2 5 13 17 16 7 6 4 6 8 8 10 11 16 15 12 1 0 1 3 0 3 5 8 9 11 11 11 12 12 12 12 12 13 12 12 12 11 12 14 14 14 14 12
3 7 13 17 19 20 19 20 23 22 21 15 21 21 24 20 8 2 2 3 2 5 7 7 7 7 9 11 13 12 11 11 12 12 12 13 13 12 11 10 11 12 11 11
6 12 16 22 22 18 18 19 21 21 22 24 26 27 11 2 1 2 4 6 4 8 10 10 9 9 8 9 9 10 12 13 13 13 11 11 10 10 11 12 11 11 12 11
9 9 12 21 16 18 17 20 21 25 24 24 23 12 5 1 4 6 6 7 7 7 10 12 13 12 11 11 10 11 11 11 10 9 10 10 10 11 12 13 12 11 12 11
14 15 11 16 12 24 16 10 12 18 13 2 5 4 4 4 8 7 9 10 11 8 10 12 12 14 14 13 13 13 10 10 10 11 10 9 10 11 12 13 14 13 12 12
18 15 10 14 17 21 25 20 16 12 15 7 9 4 2 5 6 12 11 14 14 12 10 11 11 14 15 15 14 11 12 12 12 12 12 11 10 11 13 14 15 14 14 15
6 14 11 5 9 14 6 2 3 1 7 7 2 3 7 4 10 12 14 9 12 13 11 11 13 14 14 17 16 13 14 14 15 14 14 13 12 12 14 15 16 15 14 16
2 2 12 12 14 11 4 4 3 5 3 6 5 11 11 11 12 16 15 13 12 11 12 11 13 14 15 16 12 14 15 16 15 14 14 14 14 15 15 16 15 15 16 17
6 5 4 1 4 11 5 5 6 1 9 9 12 14 14 13 14 14 13 14 12 11 12 15 14 15 17 16 13 16 18 16 16 15 15 16 16 14 14 17 16 16 16 17
7 9 5 9 7 2 7 7 12 13 13 15 13 14 11 13 14 13 11 8 10 12 13 12 11 15 17 14 12 16 18 17 18 18 19 18 18 17 16 17 17 14 15 15
13 13 12 10 19 19 20 19 19 18 17 15 13 12 11 12 9 9 9 9 11 11 11 10 12 14 18 15 16 16 18 17 18 20 21 18 18 18 17 14 13 14 14 14
11 5 9 15 20 19 21 19 21 20 16 13 4 3 4 5 7 8 9 10 10 11 12 11 12 15 18 18 17 16 17 17 18 19 18 18 15 17 16 15 14 14 15 16
14 20 12 16 19 16 21 18 16 12 12 3 3 3 1 3 7 8 8 9 10 12 13 13 14 15 16 17 18 17 16 17 18 18 15 14 14 15 14 15 15 25 31 34
Wind_Direction
148 204 218 241 230 249 286 280 283 278 286 298 290 295 293 282 281 281 283 296 299 302 326 331 351 339 322 310 291 262 245 230 204 207 209 211 217 217 221 214 209 203 196 190
164 229 232 286 264 251 260 270 270 279 282 286 286 298 292 291 268 271 287 299 305 328 12 19 18 14 3 355 344 314 257 238 223 216 210 211 216 224 228 221 222 215 204 196
241 264 239 213 254 254 247 256 272 273 316 277 298 279 248 280 274 297 281 281 341 36 22 16 18 18 12 7 354 342 319 253 223 229 223 217 259 226 212 218 225 225 220 206
251 321 221 195 250 248 274 268 264 281 302 299 18 304 297 271 278 64 37 74 55 31 31 34 25 23 18 8 3 2 4 334 256 215 224 223 236 238 229 224 212 209 220 220
255 177 165 202 228 187 265 34 324 314 287 302 301 267 345 203 240 122 69 54 41 37 31 30 29 29 26 22 16 21 19 16 349 281 236 234 239 250 269 252 220 215 211 216
266 354 229 226 157 205 137 285 198 181 286 270 318 222 345 162 183 53 83 58 49 39 37 31 28 27 31 32 28 22 25 24 8 339 291 267 269 260 254 248 234 222 214 216
256 214 228 216 229 154 189 273 287 265 244 269 92 240 252 285 41 48 71 77 54 49 39 35 32 26 20 22 28 35 30 23 16 2 341 313 290 281 271 260 240 223 214 214
283 282 198 168 232 272 190 207 242 283 277 283 125 259 258 109 88 73 61 54 44 39 33 34 32 30 29 23 20 23 31 26 21 19 5 338 310 291 282 276 263 244 230 224
301 273 92 214 136 236 146 220 268 266 267 280 267 264 266 172 85 74 61 50 40 35 32 29 23 26 18 24 22 21 20 23 19 18 12 9 344 319 294 289 279 262 255 255
307 291 268 296 284 234 253 318 253 214 256 251 245 260 264 179 126 88 56 44 36 33 33 31 24 23 17 17 18 20 18 15 16 14 13 8 9 355 328 308 286 279 271 246
308 245 278 199 229 271 249 239 231 275 253 260 265 258 319 21 83 80 50 31 29 21 17 10 12 21 21 15 11 12 16 12 10 9 2 6 8 4 5 346 326 304 287 263
273 277 252 269 294 278 260 259 242 240 239 230 251 250 84 105 104 130 131 77 46 31 7 8 15 5 11 8 8 7 5 9 7 2 359 1 1 0 360 358 351 332 310 295
76 228 293 276 247 158 217 288 267 295 297 242 255 259 156 115 128 159 170 160 67 35 13 359 4 4 2 0 2 360 359 358 357 359 358 354 358 353 354 354 343 340 326 294
60 252 248 263 280 330 265 238 285 282 275 305 266 274 239 233 36 353 125 146 167 47 23 13 355 351 349 350 350 351 349 353 353 351 349 353 354 352 347 340 339 339 334 317
219 263 274 276 278 274 269 270 274 273 274 264 282 281 282 286 304 245 336 345 314 358 4 354 338 321 331 334 334 335 333 339 343 342 340 343 340 343 339 329 329 328 330 326
264 270 277 271 274 266 268 263 265 270 271 267 265 266 293 38 67 283 334 302 287 343 343 339 330 318 300 310 309 313 323 331 335 330 323 322 321 332 336 331 326 328 327 326
270 272 268 268 277 291 265 248 258 266 264 268 273 300 78 55 289 284 279 284 265 319 330 328 320 315 307 304 312 306 306 308 302 299 305 311 318 322 326 324 318 318 318 312
248 254 257 271 273 258 273 292 271 272 288 32 120 142 182 269 299 278 268 279 260 281 312 321 317 313 313 305 303 305 297 290 290 289 297 300 309 312 315 314 310 307 308 303
232 256 262 257 257 281 290 286 263 244 272 176 152 171 256 288 287 281 262 273 258 266 296 309 310 309 307 305 306 300 293 291 289 287 295 296 301 302 308 306 303 301 302 300
229 233 245 233 261 268 306 92 66 103 270 182 191 277 290 278 284 298 316 279 263 260 285 308 316 313 306 310 317 308 299 297 295 296 291 290 289 289 293 296 298 297 291 289
263 211 236 245 258 266 236 136 149 229 321 190 229 271 275 261 269 292 296 277 270 276 290 301 305 301 302 308 314 301 299 295 300 297 291 287 287 284 286 287 286 290 290 289
254 253 210 199 250 268 130 120 215 253 295 286 280 280 280 274 279 277 277 282 291 295 309 314 311 307 308 313 316 304 297 306 305 300 291 287 287 286 285 283 282 282 281 279
252 220 256 213 250 277 193 253 262 280 275 285 286 289 273 272 270 283 297 302 301 308 313 318 310 306 305 313 311 302 302 312 307 300 295 294 292 289 285 281 279 279 277 272
257 254 246 268 255 258 263 265 275 281 277 283 286 278 281 272 289 294 302 309 312 316 315 322 319 307 302 311 309 304 307 309 304 298 297 298 295 294 289 281 278 275 271 271
243 214 233 252 262 274 266 264 265 271 281 274 235 233 258 285 293 304 307 310 310 313 315 317 308 299 298 306 304 304 303 305 299 297 297 295 291 288 287 278 276 271 267 268
234 238 240 252 263 256 267 272 279 268 266 195 208 207 168 332 308 316 305 311 314 314 316 308 303 299 299 300 300 301 301 298 296 293 292 289 290 288 284 283 280 270 275 275